Tracking 19293 objects as of 21-Nov-2018
HD Live streaming from Space Station
objects crossing your sky now

GALAXY 9

Track GALAXY 9 now!
GALAXY 9 is classified as:


NORAD ID: 23877
Int'l Code: 1996-033A
Perigee: 35,977.7 km
Apogee: 36,024.6 km
Inclination: 7.7 °
Period: 1,446.7 minutes
Semi major axis: 42372 km
RCS: 8.797 m2 (large)
Launch date: May 24, 1996
Source: United States (US)
Launch site: AIR FORCE EASTERN TEST RANGE (AFETR)

Voice and vision communication; 24 C-band; North America, Caribbean.
aabbcc
Your satellite tracking list
Your tracking list is empty




NASA's NSSDC Master Catalog

Two Line Element Set (TLE):
1 23877U 96033A   18324.77287010 +.00000125 +00000-0 +00000-0 0  9996
2 23877 007.6921 049.7859 0005535 124.6728 216.6529 00.99536462018828
Source of the keplerian elements: AFSPC